GEFSMW_500_meanwind_222.txt.gz
Wind_Speed
9 9 9 9 9 9 9 10 10 9 9 9 9 9 9 9 9 9 10 9 9 8 8 8 7 7 7 7 8 8 8 9 8 7 8 8 8 9 9 10 10 10 10
9 9 9 9 9 9 9 9 9 9 9 9 9 9 9 9 9 9 8 8 8 9 9 8 8 8 8 8 9 9 9 9 9 9 9 9 9 9 9 10 10 10 10
8 9 10 9 9 9 10 10 10 10 10 10 10 9 9 9 8 8 9 8 8 8 8 8 9 9 9 9 9 9 10 10 10 10 10 10 9 9 9 10 10 10 11
8 9 9 10 10 10 10 10 10 11 11 10 9 9 9 9 9 9 9 9 9 8 9 9 9 9 9 9 9 10 10 10 11 11 11 11 10 10 10 10 11 11 11
9 10 10 10 10 10 10 11 11 11 10 10 10 9 9 10 9 9 9 9 9 9 9 10 10 10 10 10 10 10 11 11 12 12 12 11 11 11 11 11 11 11 11
9 10 10 10 10 10 10 11 11 11 10 10 10 10 9 10 10 10 10 10 10 9 9 10 10 10 10 10 10 10 11 12 12 12 12 12 12 12 12 12 12 12 12
9 10 10 10 10 10 10 10 10 11 11 11 10 10 10 10 10 10 10 10 10 10 10 10 11 11 11 11 11 12 12 12 12 11 12 12 13 13 14 13 13 13 13
9 10 10 10 10 10 10 10 11 11 11 11 12 11 11 11 10 10 10 10 10 11 11 11 11 12 12 13 13 13 13 13 13 13 13 13 14 14 14 14 14 14 14
10 10 10 10 10 10 11 11 11 12 12 12 12 12 12 11 11 11 11 12 11 12 11 12 12 12 13 13 13 13 14 14 14 14 14 14 15 15 15 15 15 15 15
11 10 10 10 11 11 11 11 12 12 12 13 13 13 12 12 12 12 13 12 12 12 12 12 12 13 13 13 13 14 14 14 14 14 15 15 15 15 15 15 16 16 17
10 10 10 11 11 11 11 12 12 12 13 13 13 13 13 13 12 13 13 13 13 13 13 13 13 13 13 14 14 14 13 13 13 14 14 15 15 16 16 16 16 17 18
11 11 11 11 12 12 12 12 12 13 13 14 14 14 14 13 13 13 14 14 13 13 13 13 14 14 14 14 13 14 14 14 14 14 14 15 16 17 17 17 17 17 18
12 12 12 12 12 13 13 12 13 13 13 14 14 14 14 15 14 14 14 14 14 14 14 14 15 15 14 14 14 15 15 15 15 15 16 16 16 17 17 17 17 18 18
13 12 12 13 13 14 14 14 14 13 14 14 14 15 15 16 15 15 15 15 15 15 15 15 16 15 15 15 15 15 16 16 16 17 17 17 17 17 17 18 19 19 20
14 13 13 13 13 14 14 14 15 14 14 14 14 15 16 17 17 17 17 16 17 17 17 17 16 16 16 16 16 16 16 17 17 18 18 18 18 18 18 19 20 20 21
15 15 15 15 15 15 15 15 15 16 16 16 16 17 17 17 18 18 18 17 17 17 17 18 17 17 17 18 18 18 19 19 19 20 19 19 19 19 20 21 21 22 23
15 16 16 17 17 17 16 16 17 17 18 18 18 18 18 18 17 18 18 18 18 19 19 19 19 20 20 20 20 20 21 21 21 21 20 21 21 22 22 23 23 24 25
16 16 17 18 18 18 18 18 18 18 18 19 19 19 19 19 19 19 19 19 19 19 20 20 21 21 21 21 22 22 22 22 22 23 22 22 23 24 25 25 26 26 27
17 17 18 18 19 19 19 20 20 20 20 20 20 19 20 20 20 20 20 21 21 21 21 21 22 22 22 23 23 23 23 23 23 23 23 24 25 25 26 27 27 27 28
18 18 18 19 20 20 21 21 21 21 21 21 21 21 20 21 20 21 21 22 22 22 22 22 22 23 23 23 23 23 24 24 24 24 24 25 26 27 27 28 27 28 28
20 20 20 21 21 21 21 21 21 21 21 21 21 21 21 21 21 22 22 22 23 23 22 23 23 24 24 24 24 24 25 25 25 26 26 26 27 28 28 28 28 28 28
22 22 22 22 22 22 21 22 22 22 22 22 22 21 21 22 22 22 23 23 23 23 23 24 24 24 24 24 25 25 25 25 26 26 27 27 27 27 27 28 28 28 29
23 23 23 22 22 22 22 22 23 23 23 23 23 22 22 22 23 23 23 24 24 24 24 23 23 24 24 24 25 25 25 25 26 27 27 27 26 27 27 27 28 29 29
23 24 24 24 23 23 23 23 23 24 24 23 23 23 23 23 24 24 24 24 25 24 24 24 24 25 25 25 25 25 26 26 26 26 27 26 26 27 28 29 29 30 30
24 24 24 24 25 25 25 25 24 24 24 24 24 24 25 25 25 25 25 25 25 25 25 25 25 25 25 26 26 26 27 27 27 27 27 28 28 28 29 30 30 31 31
25 25 25 25 25 25 26 26 26 26 25 25 24 25 25 25 26 26 27 27 26 25 25 25 25 25 26 27 27 27 27 27 28 28 28 28 29 29 30 31 31 31 31

GEFSMW_500_meanwind_228.txt.gz
Wind_Speed
7 8 8 9 9 10 9 9 9 8 8 8 8 8 8 8 9 9 9 9 10 10 10 10 10 10 10 10 10 9 9 10 9 9 9 9 10 10 10 11 11 11 12
8 8 8 8 9 9 9 9 9 8 9 9 8 8 8 9 9 9 9 9 9 10 11 10 10 10 10 10 10 10 10 10 10 10 11 11 10 10 11 11 12 12 12
8 8 9 9 9 9 9 9 9 9 8 8 8 8 9 9 9 9 8 8 9 9 10 10 10 10 10 11 11 11 11 11 11 11 12 12 11 12 12 12 12 12 12
8 8 8 9 9 10 10 10 10 9 9 10 10 10 9 10 9 9 9 9 9 9 10 10 11 11 11 11 11 11 12 12 12 12 12 13 13 13 13 13 13 13 12
9 9 9 9 10 10 11 10 10 10 10 11 11 10 11 11 10 10 9 10 10 10 10 11 11 11 11 11 11 12 12 12 13 13 13 14 14 15 14 14 14 14 13
10 10 10 9 10 10 11 11 11 11 11 11 11 11 11 11 11 10 10 11 11 10 11 11 11 10 10 11 11 12 12 13 13 14 14 14 15 15 15 15 14 14 14
10 10 11 10 11 11 11 12 11 11 11 11 11 11 11 11 11 11 11 11 11 11 11 11 11 11 11 12 12 13 14 14 14 14 14 14 14 15 15 15 15 15 15
12 12 12 12 12 12 11 11 11 11 11 11 11 11 11 11 11 11 11 11 12 12 12 12 12 12 13 13 13 14 14 15 15 15 15 15 15 15 15 16 16 16 16
12 12 12 12 12 12 11 11 11 11 12 12 11 12 12 12 12 12 12 12 12 13 13 13 13 13 13 14 14 15 15 15 15 15 15 15 16 16 16 16 16 16 16
13 13 13 12 12 12 12 11 11 12 12 12 13 13 13 13 14 14 14 13 14 14 13 13 14 14 15 15 15 16 16 16 16 16 16 16 16 16 16 16 16 16 16
13 12 12 13 13 12 12 12 12 13 13 13 13 14 14 14 14 15 14 14 14 14 14 14 14 15 15 15 16 16 16 16 16 17 17 17 17 17 17 17 17 17 17
14 13 12 12 12 12 12 13 13 13 13 14 14 14 14 14 14 15 15 15 15 15 15 15 16 16 17 17 17 17 17 17 17 17 18 17 17 17 17 18 18 18 18
13 14 13 13 13 13 13 13 13 14 14 14 14 15 15 15 15 15 16 16 16 16 17 17 18 17 17 18 17 17 17 17 17 17 17 17 18 18 19 19 19 19 19
14 14 14 13 14 14 14 14 15 15 15 15 15 15 16 16 16 16 17 17 17 18 18 19 19 18 18 18 18 18 19 19 19 18 18 18 18 19 19 19 20 20 20
15 15 14 14 15 15 15 16 16 16 16 16 16 16 16 16 16 17 18 18 19 19 19 19 19 19 18 19 19 20 20 20 20 19 19 19 20 20 20 20 21 21 21
16 16 16 16 16 16 16 16 17 17 17 17 17 17 17 17 17 18 19 19 20 20 20 20 19 19 19 20 20 20 20 20 20 20 20 20 21 21 22 22 22 22 23
17 17 17 18 18 17 17 18 18 18 18 18 19 19 19 19 19 19 20 20 20 21 21 21 20 20 20 20 21 21 21 21 22 22 22 22 22 22 23 23 24 24 24
18 18 19 19 19 19 19 19 20 20 20 20 20 20 20 20 20 21 21 21 22 22 22 22 22 22 22 22 22 22 22 22 23 23 23 23 23 23 24 24 24 25 25
20 20 20 20 20 21 21 21 21 21 21 21 21 21 21 21 21 22 22 23 24 23 23 23 23 24 24 24 24 24 24 24 24 24 24 24 24 25 25 25 25 25 25
23 22 22 22 22 23 23 23 22 22 22 22 22 22 22 23 23 23 23 24 23 24 24 24 24 24 24 25 25 25 25 25 24 25 25 25 25 26 26 26 25 26 27
24 24 24 24 24 24 24 24 24 24 23 23 23 23 23 23 24 24 25 24 24 24 24 24 25 25 26 26 26 26 26 26 26 25 25 25 26 27 27 27 27 28 28
25 26 26 26 26 26 26 26 26 25 25 25 24 25 24 24 25 25 25 25 25 25 25 25 26 26 27 27 27 27 27 27 27 26 26 26 27 27 28 28 28 29 29
26 27 27 27 27 27 27 27 27 27 26 26 25 25 26 26 26 26 25 25 25 26 26 26 26 27 27 27 27 27 28 28 27 27 27 27 28 28 28 28 29 29 29
27 27 27 27 27 28 27 27 27 27 27 27 27 26 27 27 27 27 26 26 26 26 26 27 27 27 27 26 26 27 27 27 27 27 28 28 28 29 29 29 29 29 29
28 28 28 28 27 27 27 27 27 28 28 28 28 28 28 28 27 27 27 27 27 27 27 27 27 28 27 27 27 27 27 27 28 28 28 28 28 29 29 29 29 29 30
29 29 28 28 28 28 27 27 28 29 29 28 28 28 28 28 28 28 28 28 29 29 29 29 28 28 28 28 28 27 27 27 28 28 28 28 28 29 30 30 30 30 31

GEFSMW_500_meanwind_234.txt.gz
Wind_Speed
3 4 4 4 5 4 4 5 5 5 6 6 6 6 7 6 6 7 7 8 8 8 9 9 9 9 9 10 10 10 10 10 10 10 9 9 10 11 11 11 11 11 11
4 4 4 4 4 5 5 5 6 6 6 6 6 6 7 7 7 7 8 8 8 8 8 9 9 10 10 10 10 10 10 10 10 10 10 10 11 11 11 11 12 12 12
4 4 4 4 5 6 6 6 6 7 7 7 7 7 7 8 7 8 8 8 8 9 9 9 10 10 10 10 10 10 10 10 10 10 11 11 12 11 12 12 12 13 13
5 5 5 5 6 6 6 6 6 7 7 7 7 7 7 7 7 8 8 9 9 9 9 9 9 9 9 10 10 11 11 11 11 11 11 12 12 12 12 12 13 13 13
5 6 7 7 7 7 7 7 7 7 7 7 7 7 7 7 7 8 8 9 9 9 9 9 9 9 9 10 10 11 11 11 12 12 12 12 13 13 13 13 13 13 14
6 7 8 8 7 7 7 7 7 7 8 8 8 8 8 8 8 9 9 9 9 10 10 10 10 10 10 10 11 11 11 11 12 12 12 13 14 14 14 13 14 14 15
7 7 8 9 8 8 8 8 8 8 8 9 9 9 9 9 10 10 10 10 10 11 11 11 11 11 11 12 12 12 12 13 13 13 14 14 14 14 14 14 14 15 15
8 8 8 8 9 9 9 9 9 9 9 9 9 9 9 10 10 11 11 11 11 12 12 12 12 13 13 13 13 13 14 14 14 14 14 14 15 15 16 16 16 16 16
9 9 8 8 9 9 9 9 9 9 9 9 9 9 10 11 11 11 12 12 12 12 13 13 13 13 13 13 13 14 13 14 15 16 16 16 16 16 16 17 17 16 16
10 9 9 9 9 9 10 9 9 9 9 9 9 10 10 11 11 12 12 13 13 13 13 14 13 13 13 14 14 14 14 15 16 16 16 16 17 17 17 17 17 17 17
11 11 11 10 9 9 9 10 10 10 10 10 10 11 11 12 12 12 13 13 13 14 14 15 15 14 15 15 16 16 16 16 16 17 16 16 16 17 17 17 17 17 17
11 11 11 11 10 10 10 11 11 11 11 12 12 12 12 12 13 13 13 14 14 14 15 15 16 16 16 17 17 17 17 17 17 17 17 17 17 17 17 18 18 18 17
12 12 12 12 11 12 12 12 12 11 12 12 13 13 13 14 14 14 14 14 14 15 16 16 17 17 17 18 18 17 17 18 18 18 18 18 18 18 18 18 18 18 19
14 14 14 13 13 13 13 13 12 12 12 13 13 14 14 14 14 14 15 16 16 16 17 17 18 18 18 18 18 18 18 18 19 18 19 19 19 19 19 19 19 19 19
15 16 15 14 14 14 14 14 14 13 14 14 15 15 14 15 15 15 16 17 17 18 18 19 19 19 19 18 19 19 19 19 19 19 19 20 20 20 20 20 20 20 20
16 16 16 16 16 15 15 15 15 16 16 16 16 16 16 16 16 17 17 18 19 19 19 20 20 21 21 21 20 20 20 20 20 20 20 20 20 21 21 21 20 20 20
17 17 17 17 17 17 17 17 17 18 17 17 18 18 18 18 18 18 19 20 20 20 20 20 21 21 21 21 21 21 21 21 21 21 21 21 21 21 21 21 21 21 21
19 18 18 18 18 19 19 18 19 19 19 19 20 20 20 20 20 20 20 21 21 21 21 21 22 22 22 22 22 22 22 22 22 22 22 22 21 21 22 22 22 22 22
20 20 20 20 20 20 21 21 21 21 21 21 21 21 21 21 22 22 22 22 22 22 22 22 23 22 22 23 22 22 22 23 23 23 23 23 22 23 23 23 23 23 24
22 21 22 22 22 22 23 23 23 23 23 23 22 22 23 23 23 23 23 23 23 23 24 24 24 24 23 23 23 24 24 24 24 23 23 23 23 23 24 24 24 24 24
24 24 24 24 24 24 25 24 24 25 25 25 24 25 25 25 24 24 25 25 25 25 25 26 25 25 25 24 24 25 25 24 24 24 24 23 23 24 24 25 25 25 25
25 25 25 25 25 26 26 26 26 26 26 26 26 26 26 25 26 26 26 26 26 26 27 27 26 26 26 26 26 26 26 25 25 24 25 25 25 25 25 25 26 26 27
25 25 26 26 26 26 27 27 27 27 27 27 27 27 27 27 27 27 27 28 28 27 27 27 27 27 26 26 26 26 26 26 26 25 26 26 26 25 25 26 26 27 27
27 27 27 27 27 27 27 27 27 27 27 27 27 27 27 28 28 29 29 29 29 28 28 27 27 28 28 27 27 27 27 27 27 27 26 26 26 26 26 26 27 27 27
28 29 29 29 28 28 28 28 28 28 28 28 28 28 28 29 29 29 29 29 29 28 28 28 28 28 28 28 28 28 28 28 27 27 27 27 27 27 27 27 28 28 27
29 29 29 29 29 29 29 29 29 29 29 29 29 29 29 30 30 30 30 30 30 29 29 29 29 28 28 29 28 28 28 28 28 28 28 28 28 28 28 28 28 28 28

GEFSMW_500_meanwind_240.txt.gz
Wind_Speed
3 3 3 3 3 4 4 4 4 5 5 6 6 6 7 7 7 7 7 7 8 8 9 9 10 10 11 11 11 10 10 10 11 11 11 11 11 12 12 12 12 12 13
4 4 4 4 3 4 5 5 5 5 5 5 5 6 6 7 7 6 7 7 8 9 9 9 9 9 9 9 10 10 11 11 12 12 11 11 12 12 12 12 13 13 13
4 5 5 4 4 5 5 5 5 6 6 6 6 6 6 7 7 8 9 9 9 9 9 9 9 9 9 9 9 10 11 11 11 12 12 12 12 12 12 12 13 13 14
5 5 6 6 6 6 6 6 6 7 7 7 7 7 7 7 8 8 9 9 9 10 10 10 9 10 10 10 10 10 10 11 11 11 12 12 12 13 13 14 14 14 14
6 6 6 6 6 7 7 7 7 7 7 7 7 7 8 8 8 9 9 9 10 10 10 10 10 10 11 11 10 11 11 11 11 11 12 12 13 13 14 14 14 15 15
7 7 7 7 7 7 7 8 8 8 8 8 8 9 9 9 9 9 9 9 10 10 10 10 11 11 12 12 11 12 12 12 12 12 13 14 14 14 15 15 15 15 16
7 7 7 8 7 7 8 8 8 9 9 9 9 9 10 10 9 9 10 10 10 10 10 11 11 12 12 12 12 12 13 13 14 14 15 15 16 16 16 16 16 16 16
8 8 9 8 8 8 8 9 9 10 10 10 10 10 10 10 10 10 10 10 10 10 11 11 11 12 13 13 14 14 14 14 15 15 16 16 17 17 16 16 16 16 16
10 10 10 9 9 8 9 9 10 11 11 11 11 11 11 11 11 11 11 11 11 11 12 12 13 13 14 14 15 15 15 16 16 16 16 17 17 17 16 16 16 16 16
10 10 10 10 9 9 9 9 10 10 11 11 11 11 12 12 12 12 12 12 13 13 13 13 14 15 15 15 15 16 16 16 17 17 17 17 16 16 16 16 16 17 17
11 11 11 10 10 10 10 10 10 10 10 10 11 11 12 13 13 13 13 14 14 14 14 15 15 15 16 16 16 17 17 17 18 17 17 17 16 16 17 17 17 18 18
12 11 11 11 11 11 11 11 11 11 11 11 12 12 13 14 14 15 15 15 15 15 15 15 16 17 17 17 18 18 18 17 17 17 17 18 17 17 18 18 19 19 19
12 12 12 12 12 13 13 12 13 13 12 13 13 14 15 15 15 16 16 16 16 16 16 17 18 18 19 19 18 18 17 17 18 18 18 18 18 18 19 20 20 20 20
14 14 14 14 14 14 15 15 14 14 14 15 15 16 16 17 17 17 17 17 18 18 19 19 19 20 20 19 19 19 18 18 19 18 18 19 19 20 20 21 21 21 21
16 16 16 16 16 16 16 16 17 17 16 16 17 17 18 18 18 18 18 18 19 20 20 20 20 20 20 20 20 20 20 20 20 20 20 21 21 22 22 22 22 22 21
18 17 17 17 18 18 18 18 18 18 18 18 18 19 19 20 20 20 19 20 20 21 21 21 21 21 21 21 21 21 21 21 21 21 21 22 22 22 22 22 22 22 21
19 19 19 19 19 19 19 20 20 20 20 20 20 20 21 21 22 22 21 21 21 21 22 22 22 22 22 22 22 22 22 22 22 22 22 22 22 22 21 21 21 21 21
21 21 22 21 21 20 20 20 20 21 22 22 23 23 23 23 23 23 23 23 23 23 23 23 23 23 23 23 23 23 23 23 23 22 22 22 22 22 22 22 22 22 22
22 22 23 24 23 22 22 22 22 22 22 23 24 24 25 25 25 25 25 25 25 25 25 25 25 25 25 24 24 24 25 24 24 23 23 23 23 23 24 24 24 24 24
23 23 24 25 25 24 24 24 24 24 24 24 25 25 25 25 25 25 26 26 26 26 26 26 26 25 25 25 25 25 25 25 25 24 23 24 25 25 25 25 25 25 25
25 25 25 25 26 26 26 26 26 26 26 27 26 27 27 27 26 26 27 27 27 27 27 27 27 27 27 27 27 26 27 26 26 25 25 25 26 26 26 26 26 26 27
27 26 26 27 27 27 28 28 29 28 29 29 28 28 28 28 28 28 28 28 28 28 29 29 28 28 28 28 28 28 27 27 27 27 27 27 27 27 27 27 27 28 28
29 29 29 29 29 29 29 29 29 30 30 29 29 29 29 29 29 29 29 29 29 30 30 30 29 29 30 30 30 29 28 28 28 28 29 29 28 28 28 28 28 29 29
30 30 30 30 31 31 32 30 30 30 31 30 30 30 30 30 30 30 30 31 31 31 31 31 30 30 31 31 31 30 30 30 30 29 29 29 29 29 29 29 29 30 30
31 31 31 32 32 32 32 32 32 32 32 32 31 31 31 31 31 31 32 32 32 32 31 31 31 32 31 31 31 32 31 31 30 30 29 29 29 29 30 30 30 30 30
32 32 32 33 33 33 33 33 33 33 33 33 32 32 32 31 31 32 32 32 32 32 32 32 32 32 32 32 32 33 33 32 31 30 30 30 30 30 30 30 30 31 31